FIN1847 EFHK-LATI

Flight info

Callsign FIN1847
Flight time 2h 44m
Altitude 36000
Route KOIVU DCT LARTI DCT NAVOT DCT LUTAL DCT BERIL DCT NAPOT DCT SUWGI DCT UNPEG DCT XESNA DCT GERVI DCT VENES M857 OBOSO DCT LENOV DCT IBLIZ DCT PARAK DCT MODRA DCT AKIKA DCT INLOT
Aircraft A320/M-SDE3FGHIRWY/LB1

Departure

Time 2026-05-05 03:46
Airport Helsinki Vantaa Airport (EFHK)

Arrival

Time 2026-05-05 06:30
Airport Tirana International Airport Mother Teresa (LATI)
Time Latitude Longitude Altitude Speed Heading
2026-05-05 03:22 60.31979 24.96480 167 ft 0 kts 137°
2026-05-05 03:39 60.31968 24.96500 166 ft 5 kts 137°
2026-05-05 03:40 60.31974 24.96585 166 ft 7 kts 51°
2026-05-05 03:40 60.32018 24.96685 166 ft 11 kts 48°
2026-05-05 03:40 60.32065 24.96789 166 ft 9 kts 47°
2026-05-05 03:40 60.32105 24.96865 166 ft 6 kts 37°
2026-05-05 03:41 60.32152 24.96844 166 ft 9 kts 331°
2026-05-05 03:41 60.32204 24.96785 166 ft 9 kts 329°
2026-05-05 03:41 60.32277 24.96696 167 ft 12 kts 330°
2026-05-05 03:41 60.32337 24.96625 170 ft 10 kts 330°
2026-05-05 03:42 60.32441 24.96505 175 ft 23 kts 330°
2026-05-05 03:42 60.32587 24.96337 173 ft 25 kts 329°
2026-05-05 03:42 60.32745 24.96149 172 ft 26 kts 329°
2026-05-05 03:42 60.32900 24.95972 175 ft 26 kts 330°
2026-05-05 03:43 60.33044 24.95803 181 ft 21 kts 329°
2026-05-05 03:43 60.33156 24.95618 180 ft 16 kts 316°
2026-05-05 03:43 60.33214 24.95470 182 ft 12 kts 283°
2026-05-05 03:43 60.33172 24.95311 179 ft 16 kts 227°
2026-05-05 03:44 60.33109 24.95111 178 ft 18 kts 261°
2026-05-05 03:44 60.33112 24.94845 180 ft 19 kts 271°
2026-05-05 03:44 60.33118 24.94588 186 ft 17 kts 273°
2026-05-05 03:44 60.33108 24.94384 198 ft 15 kts 243°
2026-05-05 03:45 60.33025 24.94191 199 ft 26 kts 227°
2026-05-05 03:45 60.32804 24.93707 181 ft 78 kts 227°
2026-05-05 03:45 60.32292 24.92578 170 ft 138 kts 227°
2026-05-05 03:45 60.31545 24.90902 370 ft 169 kts 225°
2026-05-05 03:46 60.30768 24.89067 1019 ft 175 kts 229°
2026-05-05 03:46 60.30085 24.87035 1711 ft 180 kts 240°
2026-05-05 03:46 60.29429 24.84801 2207 ft 191 kts 238°
2026-05-05 03:46 60.28650 24.82469 2572 ft 212 kts 237°
2026-05-05 03:47 60.27771 24.79981 3229 ft 222 kts 235°
2026-05-05 03:47 60.26832 24.77450 4036 ft 228 kts 235°
2026-05-05 03:47 60.26108 24.74609 4874 ft 232 kts 252°
2026-05-05 03:47 60.25702 24.71445 5756 ft 234 kts 255°
2026-05-05 03:48 60.25226 24.68304 6630 ft 235 kts 246°
2026-05-05 03:48 60.24286 24.65631 7530 ft 237 kts 225°
2026-05-05 03:48 60.22845 24.63955 8379 ft 247 kts 204°
2026-05-05 03:48 60.21122 24.63340 9072 ft 263 kts 192°
2026-05-05 03:49 60.19264 24.63150 9773 ft 271 kts 190°
2026-05-05 03:49 60.17316 24.63103 10146 ft 292 kts 188°
2026-05-05 03:49 60.15202 24.63164 10365 ft 315 kts 187°
2026-05-05 03:49 60.12979 24.63338 10906 ft 325 kts 186°
2026-05-05 03:50 60.10703 24.63594 11579 ft 330 kts 185°
2026-05-05 03:50 60.08394 24.63885 12276 ft 335 kts 186°
2026-05-05 03:50 60.06056 24.64177 12968 ft 339 kts 186°
2026-05-05 03:50 60.03688 24.64459 13615 ft 343 kts 187°
2026-05-05 03:51 60.01325 24.64726 14213 ft 346 kts 187°
2026-05-05 03:51 59.98912 24.64988 14856 ft 348 kts 187°
2026-05-05 03:51 59.96485 24.65246 15492 ft 350 kts 187°
2026-05-05 03:51 59.94043 24.65503 16134 ft 352 kts 187°
2026-05-05 03:52 59.91587 24.65759 16761 ft 355 kts 186°
2026-05-05 03:52 59.89115 24.66019 17383 ft 357 kts 186°
2026-05-05 03:52 59.86627 24.66285 17998 ft 359 kts 186°
2026-05-05 03:52 59.84181 24.66216 18497 ft 353 kts 195°
2026-05-05 03:53 59.81803 24.65282 19012 ft 349 kts 202°
2026-05-05 03:53 59.79433 24.64148 19512 ft 352 kts 202°
2026-05-05 03:53 59.77042 24.63009 20041 ft 355 kts 202°
2026-05-05 03:53 59.74629 24.61870 20548 ft 358 kts 201°
2026-05-05 03:54 59.72193 24.60725 21069 ft 361 kts 201°
2026-05-05 03:54 59.69736 24.59576 21564 ft 364 kts 201°
2026-05-05 03:54 59.67258 24.58417 22071 ft 367 kts 201°
2026-05-05 03:54 59.64767 24.57215 22565 ft 369 kts 202°
2026-05-05 03:55 59.62271 24.55932 23040 ft 372 kts 203°
2026-05-05 03:55 59.59765 24.54604 23475 ft 374 kts 203°
2026-05-05 03:55 59.57277 24.53275 23848 ft 377 kts 203°
2026-05-05 03:55 59.54739 24.51926 24244 ft 379 kts 202°
2026-05-05 03:56 59.52190 24.50587 24627 ft 381 kts 202°
2026-05-05 03:56 59.49617 24.49255 24995 ft 383 kts 202°
2026-05-05 03:56 59.47029 24.47927 25356 ft 385 kts 202°
2026-05-05 03:56 59.44427 24.46594 25711 ft 387 kts 202°
2026-05-05 03:57 59.41811 24.45257 26060 ft 390 kts 202°
2026-05-05 03:57 59.39181 24.43911 26404 ft 392 kts 202°
2026-05-05 03:57 59.36572 24.42569 26735 ft 394 kts 202°
2026-05-05 03:57 59.33911 24.41218 27063 ft 397 kts 201°
2026-05-05 03:58 59.31200 24.40041 27392 ft 401 kts 199°
2026-05-05 03:58 59.28445 24.39029 27715 ft 405 kts 198°
2026-05-05 03:58 59.25660 24.38104 28025 ft 407 kts 197°
2026-05-05 03:58 59.22856 24.37195 28321 ft 409 kts 197°
2026-05-05 03:59 59.20041 24.36260 28616 ft 411 kts 197°
2026-05-05 03:59 59.17222 24.35291 28898 ft 413 kts 198°
2026-05-05 03:59 59.14386 24.34292 29176 ft 415 kts 198°
2026-05-05 03:59 59.11537 24.33273 29455 ft 417 kts 198°
2026-05-05 04:00 59.08676 24.32242 29711 ft 419 kts 198°
2026-05-05 04:00 59.05801 24.31208 29936 ft 421 kts 198°
2026-05-05 04:00 59.02950 24.30188 30146 ft 423 kts 198°
2026-05-05 04:00 59.00047 24.29157 30352 ft 425 kts 197°
2026-05-05 04:01 58.97131 24.28130 30550 ft 427 kts 197°
2026-05-05 04:01 58.94203 24.27105 30747 ft 428 kts 197°
2026-05-05 04:01 58.91272 24.26080 31031 ft 428 kts 197°
2026-05-05 04:01 58.88345 24.25056 31315 ft 427 kts 197°
2026-05-05 04:02 58.85422 24.24033 31592 ft 427 kts 197°
2026-05-05 04:02 58.82507 24.23011 31870 ft 426 kts 197°
2026-05-05 04:02 58.79626 24.22003 32137 ft 426 kts 197°
2026-05-05 04:02 58.76708 24.20983 32408 ft 426 kts 197°
2026-05-05 04:03 58.73791 24.19966 32675 ft 426 kts 197°
2026-05-05 04:03 58.70875 24.18953 32947 ft 426 kts 197°
2026-05-05 04:03 58.67962 24.17942 33212 ft 425 kts 197°
2026-05-05 04:03 58.65052 24.16935 33503 ft 425 kts 196°
2026-05-05 04:04 58.62144 24.15933 33781 ft 424 kts 196°
2026-05-05 04:04 58.59278 24.14943 34001 ft 424 kts 196°
2026-05-05 04:04 58.56374 24.13941 34226 ft 424 kts 196°
2026-05-05 04:04 58.53470 24.12941 34439 ft 424 kts 196°
2026-05-05 04:05 58.50566 24.11939 34643 ft 424 kts 196°
2026-05-05 04:05 58.47661 24.10936 34840 ft 424 kts 196°
2026-05-05 04:05 58.44762 24.09936 35026 ft 424 kts 196°
2026-05-05 04:05 58.41855 24.08940 35208 ft 425 kts 196°
2026-05-05 04:06 58.38946 24.07948 35386 ft 425 kts 195°
2026-05-05 04:06 58.36035 24.06962 35557 ft 425 kts 195°
2026-05-05 04:06 58.33124 24.05981 35737 ft 425 kts 195°
2026-05-05 04:06 58.30209 24.04999 35801 ft 426 kts 195°
2026-05-05 04:07 58.24361 24.02996 35798 ft 432 kts 195°
2026-05-05 04:07 58.18429 24.00983 35797 ft 433 kts 195°
2026-05-05 04:08 58.12486 23.98983 35793 ft 434 kts 195°
2026-05-05 04:08 58.06544 23.97007 35812 ft 434 kts 195°
2026-05-05 04:09 58.00631 23.95037 35805 ft 435 kts 195°
2026-05-05 04:09 57.94673 23.93051 35809 ft 435 kts 195°
2026-05-05 04:10 57.88709 23.91074 35807 ft 435 kts 195°
2026-05-05 04:10 57.82742 23.89094 35814 ft 435 kts 195°
2026-05-05 04:11 57.76773 23.87115 35815 ft 436 kts 195°
2026-05-05 04:11 57.70806 23.85155 35820 ft 436 kts 195°
2026-05-05 04:12 57.64870 23.83210 35816 ft 436 kts 194°
2026-05-05 04:12 57.58892 23.81255 35826 ft 436 kts 194°
2026-05-05 04:13 57.52909 23.79322 35826 ft 436 kts 194°
2026-05-05 04:13 57.46963 23.77392 35830 ft 437 kts 194°
2026-05-05 04:14 57.40983 23.75450 35828 ft 437 kts 194°
2026-05-05 04:14 57.34984 23.73529 35831 ft 437 kts 194°
2026-05-05 04:15 57.28994 23.71617 35829 ft 437 kts 194°
2026-05-05 04:15 57.22995 23.69700 35828 ft 438 kts 194°
2026-05-05 04:16 57.17032 23.67793 35838 ft 438 kts 194°
2026-05-05 04:16 57.11024 23.65884 35850 ft 438 kts 194°
2026-05-05 04:17 57.05011 23.63983 35853 ft 438 kts 194°
2026-05-05 04:17 56.99001 23.62081 35858 ft 439 kts 194°
2026-05-05 04:18 56.92980 23.60186 35856 ft 439 kts 194°
2026-05-05 04:18 56.86996 23.58304 35860 ft 439 kts 194°
2026-05-05 04:19 56.80970 23.56421 35857 ft 439 kts 194°
2026-05-05 04:19 56.74942 23.54545 35862 ft 439 kts 194°
2026-05-05 04:20 56.68913 23.52674 35858 ft 439 kts 194°
2026-05-05 04:20 56.62884 23.50811 35868 ft 439 kts 194°
2026-05-05 04:21 56.56905 23.48958 35869 ft 439 kts 194°
2026-05-05 04:21 56.50880 23.47101 35876 ft 439 kts 194°
2026-05-05 04:22 56.44856 23.45254 35876 ft 439 kts 194°
2026-05-05 04:22 56.38835 23.43415 35880 ft 439 kts 194°
2026-05-05 04:23 56.32794 23.41760 35882 ft 440 kts 192°
2026-05-05 04:23 56.26738 23.40657 35886 ft 441 kts 190°
2026-05-05 04:24 56.20617 23.39680 35889 ft 441 kts 190°
2026-05-05 04:25 56.11479 23.38042 35908 ft 440 kts 191°
2026-05-05 04:25 56.05393 23.36891 35889 ft 440 kts 191°
2026-05-05 04:26 55.99348 23.35764 35899 ft 440 kts 191°
2026-05-05 04:26 55.93261 23.34640 35893 ft 440 kts 191°
2026-05-05 04:27 55.87175 23.33522 35887 ft 440 kts 191°
2026-05-05 04:27 55.81098 23.32403 35889 ft 439 kts 191°
2026-05-05 04:28 55.75014 23.31284 35889 ft 439 kts 191°
2026-05-05 04:28 55.68971 23.30186 35892 ft 439 kts 191°
2026-05-05 04:29 55.62888 23.29096 35897 ft 439 kts 191°
2026-05-05 04:29 55.56806 23.28006 35902 ft 439 kts 191°
2026-05-05 04:30 55.50735 23.26906 35909 ft 439 kts 191°
2026-05-05 04:30 55.44652 23.25807 35905 ft 439 kts 191°
2026-05-05 04:31 55.38605 23.24546 35918 ft 437 kts 193°
2026-05-05 04:31 55.32606 23.22868 35916 ft 436 kts 194°
2026-05-05 04:32 55.26658 23.21138 35923 ft 436 kts 194°
2026-05-05 04:32 55.20661 23.19488 35919 ft 436 kts 193°
2026-05-05 04:33 55.14657 23.17908 35922 ft 436 kts 193°
2026-05-05 04:33 55.08660 23.16347 35918 ft 436 kts 193°
2026-05-05 04:34 55.02700 23.14775 35919 ft 436 kts 193°
2026-05-05 04:34 54.96701 23.13180 35921 ft 436 kts 193°
2026-05-05 04:35 54.90700 23.11598 35922 ft 436 kts 193°
2026-05-05 04:35 54.84696 23.10030 35921 ft 436 kts 192°
2026-05-05 04:36 54.78736 23.08464 35919 ft 436 kts 192°
2026-05-05 04:36 54.72734 23.06888 35921 ft 436 kts 192°
2026-05-05 04:37 54.66734 23.05317 35925 ft 437 kts 192°
2026-05-05 04:37 54.60717 23.03762 35929 ft 437 kts 192°
2026-05-05 04:38 54.54733 23.02237 35929 ft 438 kts 192°
2026-05-05 04:38 54.48706 23.00675 35931 ft 438 kts 192°
2026-05-05 04:39 54.42678 22.99108 35929 ft 438 kts 192°
2026-05-05 04:39 54.36652 22.97568 35931 ft 438 kts 192°
2026-05-05 04:40 54.30657 22.96033 35929 ft 439 kts 192°
2026-05-05 04:40 54.24614 22.94496 35930 ft 439 kts 192°
2026-05-05 04:41 54.18564 22.92970 35934 ft 440 kts 192°
2026-05-05 04:41 54.12511 22.91439 35935 ft 440 kts 192°
2026-05-05 04:42 54.06495 22.89897 35932 ft 440 kts 193°
2026-05-05 04:42 54.00508 22.87842 35930 ft 439 kts 196°
2026-05-05 04:43 53.94565 22.85407 35932 ft 440 kts 197°
2026-05-05 04:43 53.88605 22.83011 35934 ft 440 kts 195°
2026-05-05 04:44 53.82619 22.80735 35928 ft 441 kts 195°
2026-05-05 04:44 53.76661 22.78517 35938 ft 441 kts 195°
2026-05-05 04:45 53.70660 22.76274 35935 ft 442 kts 195°
2026-05-05 04:45 53.64655 22.74016 35926 ft 442 kts 195°
2026-05-05 04:46 53.58646 22.71765 35936 ft 442 kts 195°
2026-05-05 04:46 53.52638 22.69533 35934 ft 443 kts 194°
2026-05-05 04:47 53.46620 22.67301 35933 ft 443 kts 194°
2026-05-05 04:47 53.40598 22.65062 35931 ft 443 kts 194°
2026-05-05 04:48 53.34607 22.62842 35932 ft 444 kts 194°
2026-05-05 04:48 53.28568 22.60623 35928 ft 445 kts 194°
2026-05-05 04:49 53.22522 22.58402 35929 ft 445 kts 194°
2026-05-05 04:49 53.16475 22.56173 35927 ft 445 kts 194°
2026-05-05 04:50 53.10429 22.53953 35923 ft 445 kts 194°
2026-05-05 04:50 53.04411 22.51759 35923 ft 446 kts 194°
2026-05-05 04:51 52.98347 22.49564 35918 ft 446 kts 194°
2026-05-05 04:51 52.92277 22.47375 35916 ft 447 kts 194°
2026-05-05 04:52 52.86207 22.45186 35918 ft 447 kts 194°
2026-05-05 04:52 52.81153 22.43357 35915 ft 447 kts 194°
2026-05-05 04:53 52.74082 22.40803 35917 ft 448 kts 194°
2026-05-05 04:53 52.67985 22.38616 35920 ft 449 kts 193°
2026-05-05 04:54 52.61880 22.36440 35920 ft 449 kts 193°
2026-05-05 04:54 52.56808 22.34634 35921 ft 449 kts 193°
2026-05-05 04:55 52.50693 22.32469 35915 ft 450 kts 193°
2026-05-05 04:55 52.43573 22.29956 35915 ft 450 kts 193°
2026-05-05 04:56 52.38486 22.28152 35914 ft 450 kts 193°
2026-05-05 04:56 52.32356 22.25981 35915 ft 451 kts 193°
2026-05-05 04:57 52.26228 22.23816 35914 ft 451 kts 193°
2026-05-05 04:57 52.19082 22.21321 35909 ft 452 kts 193°
2026-05-05 04:58 52.13932 22.19554 35908 ft 452 kts 192°
2026-05-05 04:58 52.07785 22.17684 35907 ft 453 kts 191°
2026-05-05 04:59 52.01573 22.15954 35908 ft 453 kts 191°
2026-05-05 04:59 51.95359 22.14186 35908 ft 454 kts 191°
2026-05-05 05:00 51.89142 22.12366 35908 ft 454 kts 191°
2026-05-05 05:00 51.82924 22.10546 35909 ft 455 kts 191°
2026-05-05 05:01 51.76689 22.08739 35913 ft 455 kts 191°
2026-05-05 05:01 51.70488 22.06940 35910 ft 456 kts 191°
2026-05-05 05:02 51.64237 22.05126 35984 ft 456 kts 192°
2026-05-05 05:02 51.58043 22.03340 35960 ft 449 kts 193°
2026-05-05 05:03 51.51898 22.01580 35962 ft 448 kts 193°
2026-05-05 05:03 51.45805 21.99851 35954 ft 447 kts 193°
2026-05-05 05:04 51.39690 21.98104 35952 ft 447 kts 193°
2026-05-05 05:04 51.33572 21.96358 35949 ft 446 kts 193°
2026-05-05 05:05 51.27455 21.94618 35946 ft 447 kts 193°
2026-05-05 05:05 51.21336 21.92872 35949 ft 447 kts 193°
2026-05-05 05:06 51.15253 21.91148 35949 ft 447 kts 192°
2026-05-05 05:06 51.09123 21.89434 35947 ft 447 kts 192°
2026-05-05 05:07 51.02989 21.87731 35948 ft 447 kts 192°
2026-05-05 05:07 50.96860 21.86024 35953 ft 448 kts 192°
2026-05-05 05:08 50.90764 21.84317 35954 ft 448 kts 192°
2026-05-05 05:08 50.84626 21.82597 35955 ft 448 kts 192°
2026-05-05 05:09 50.78487 21.80883 35955 ft 448 kts 192°
2026-05-05 05:09 50.72344 21.79190 35956 ft 448 kts 192°
2026-05-05 05:10 50.66201 21.77506 35955 ft 449 kts 192°
2026-05-05 05:10 50.60172 21.75360 35954 ft 446 kts 202°
2026-05-05 05:11 50.54388 21.71849 35954 ft 446 kts 203°
2026-05-05 05:11 50.48592 21.68362 35953 ft 446 kts 203°
2026-05-05 05:12 50.42784 21.64887 35956 ft 447 kts 203°
2026-05-05 05:12 50.37005 21.61430 35962 ft 448 kts 203°
2026-05-05 05:13 50.31149 21.57928 35966 ft 448 kts 202°
2026-05-05 05:13 50.25358 21.54481 35972 ft 448 kts 202°
2026-05-05 05:14 50.19523 21.51023 35975 ft 448 kts 202°
2026-05-05 05:14 50.13688 21.47568 35975 ft 448 kts 202°
2026-05-05 05:15 50.07890 21.44142 35972 ft 449 kts 202°
2026-05-05 05:15 50.02052 21.40701 35979 ft 449 kts 202°
2026-05-05 05:16 49.96216 21.37265 35980 ft 449 kts 202°
2026-05-05 05:16 49.90362 21.33829 35985 ft 449 kts 202°
2026-05-05 05:17 49.84516 21.30405 35993 ft 450 kts 202°
2026-05-05 05:17 49.78696 21.27011 35994 ft 450 kts 202°
2026-05-05 05:18 49.72836 21.23600 36002 ft 450 kts 202°
2026-05-05 05:18 49.66972 21.20199 36006 ft 450 kts 202°
2026-05-05 05:19 49.61103 21.16810 36009 ft 450 kts 202°
2026-05-05 05:19 49.55277 21.13452 36015 ft 450 kts 202°
2026-05-05 05:20 49.49408 21.10070 36016 ft 450 kts 202°
2026-05-05 05:20 49.43540 21.06703 36016 ft 450 kts 202°
2026-05-05 05:21 49.37673 21.03338 36017 ft 450 kts 202°
2026-05-05 05:21 49.31718 21.00573 36020 ft 452 kts 190°
2026-05-05 05:22 49.25487 20.99130 36023 ft 453 kts 190°
2026-05-05 05:22 49.19261 20.97668 36032 ft 453 kts 190°
2026-05-05 05:23 49.13026 20.96207 36031 ft 453 kts 190°
2026-05-05 05:23 49.06828 20.94761 36036 ft 454 kts 190°
2026-05-05 05:24 49.00587 20.93313 36040 ft 454 kts 190°
2026-05-05 05:24 48.94341 20.91887 36045 ft 454 kts 190°
2026-05-05 05:25 48.88098 20.90452 36050 ft 454 kts 190°
2026-05-05 05:25 48.81851 20.89003 36048 ft 454 kts 190°
2026-05-05 05:26 48.75645 20.87578 36057 ft 454 kts 190°
2026-05-05 05:26 48.69395 20.86155 36046 ft 454 kts 190°
2026-05-05 05:27 48.63145 20.84723 36054 ft 454 kts 190°
2026-05-05 05:27 48.53809 20.82592 36055 ft 454 kts 190°
2026-05-05 05:28 48.47556 20.81165 36040 ft 454 kts 190°
2026-05-05 05:28 48.41308 20.79749 36038 ft 455 kts 190°
2026-05-05 05:29 48.35050 20.78344 36039 ft 455 kts 190°
2026-05-05 05:29 48.28800 20.76855 36035 ft 454 kts 192°
2026-05-05 05:30 48.22661 20.74870 36042 ft 454 kts 195°
2026-05-05 05:30 48.16509 20.72673 36033 ft 455 kts 195°
2026-05-05 05:31 48.10345 20.70567 36036 ft 455 kts 194°
2026-05-05 05:31 48.04159 20.68558 36032 ft 455 kts 193°
2026-05-05 05:32 47.97965 20.66572 36032 ft 455 kts 194°
2026-05-05 05:32 47.91810 20.64575 36036 ft 456 kts 194°
2026-05-05 05:33 47.85612 20.62558 36036 ft 456 kts 194°
2026-05-05 05:33 47.79418 20.60535 36037 ft 456 kts 194°
2026-05-05 05:34 47.73224 20.58529 36036 ft 455 kts 194°
2026-05-05 05:34 47.67034 20.56538 36036 ft 456 kts 194°
2026-05-05 05:35 47.60876 20.54560 36036 ft 456 kts 194°
2026-05-05 05:35 47.54671 20.52571 36034 ft 456 kts 193°
2026-05-05 05:36 47.48459 20.50590 36036 ft 457 kts 193°
2026-05-05 05:36 47.42242 20.48603 36042 ft 457 kts 194°
2026-05-05 05:37 47.36063 20.46635 36036 ft 457 kts 193°
2026-05-05 05:37 47.29848 20.44661 36039 ft 457 kts 193°
2026-05-05 05:38 47.23627 20.42687 36057 ft 457 kts 194°
2026-05-05 05:38 47.17408 20.40721 36057 ft 457 kts 193°
2026-05-05 05:39 47.11233 20.38775 36058 ft 457 kts 194°
2026-05-05 05:39 47.05013 20.36821 36056 ft 457 kts 193°
2026-05-05 05:40 46.98788 20.34872 36051 ft 457 kts 194°
2026-05-05 05:40 46.92571 20.32917 36049 ft 457 kts 194°
2026-05-05 05:41 46.86350 20.30960 36040 ft 457 kts 194°
2026-05-05 05:41 46.80167 20.29042 36033 ft 457 kts 193°
2026-05-05 05:42 46.73941 20.27113 36028 ft 458 kts 194°
2026-05-05 05:42 46.67711 20.25174 36031 ft 458 kts 194°
2026-05-05 05:43 46.61479 20.23241 36032 ft 458 kts 194°
2026-05-05 05:43 46.55253 20.21321 36031 ft 458 kts 194°
2026-05-05 05:44 46.49058 20.19421 36038 ft 458 kts 194°
2026-05-05 05:44 46.42818 20.17500 36040 ft 458 kts 194°
2026-05-05 05:45 46.36576 20.15581 36042 ft 458 kts 194°
2026-05-05 05:45 46.30333 20.13671 36041 ft 459 kts 194°
2026-05-05 05:46 46.24087 20.11767 36041 ft 459 kts 194°
2026-05-05 05:46 46.17889 20.09875 36042 ft 459 kts 194°
2026-05-05 05:47 46.11557 20.08596 36039 ft 460 kts 188°
2026-05-05 05:47 46.05197 20.07530 36042 ft 460 kts 188°
2026-05-05 05:48 45.98835 20.06466 36043 ft 460 kts 188°
2026-05-05 05:48 45.92515 20.05395 36044 ft 460 kts 188°
2026-05-05 05:49 45.86152 20.04324 36045 ft 460 kts 188°
2026-05-05 05:49 45.79792 20.03269 36044 ft 461 kts 188°
2026-05-05 05:50 45.73423 20.02206 36040 ft 461 kts 188°
2026-05-05 05:50 45.67052 20.01149 36041 ft 461 kts 188°
2026-05-05 05:51 45.60720 20.00104 36041 ft 461 kts 188°
2026-05-05 05:51 45.54346 19.99041 36044 ft 461 kts 188°
2026-05-05 05:52 45.47969 19.97983 36044 ft 461 kts 188°
2026-05-05 05:52 45.41588 19.96933 36045 ft 462 kts 188°
2026-05-05 05:53 45.35247 19.95896 36046 ft 462 kts 188°
2026-05-05 05:53 45.28868 19.94851 36045 ft 462 kts 189°
2026-05-05 05:54 45.22481 19.93793 36044 ft 462 kts 189°
2026-05-05 05:54 45.16089 19.92746 36049 ft 462 kts 188°
2026-05-05 05:55 45.09736 19.91722 36054 ft 463 kts 189°
2026-05-05 05:55 45.03338 19.90681 36056 ft 463 kts 189°
2026-05-05 05:56 44.96946 19.89639 36060 ft 463 kts 189°
2026-05-05 05:56 44.90543 19.88601 36059 ft 463 kts 189°
2026-05-05 05:57 44.84180 19.87573 36059 ft 463 kts 189°
2026-05-05 05:57 44.77772 19.86547 36058 ft 463 kts 189°
2026-05-05 05:58 44.71364 19.85513 36060 ft 463 kts 189°
2026-05-05 05:58 44.64954 19.84479 36062 ft 464 kts 189°
2026-05-05 05:59 44.58584 19.83464 36061 ft 464 kts 189°
2026-05-05 05:59 44.52178 19.82443 36061 ft 464 kts 189°
2026-05-05 06:00 44.45763 19.81416 36064 ft 464 kts 189°
2026-05-05 06:00 44.39347 19.80398 36066 ft 464 kts 189°
2026-05-05 06:01 44.32928 19.79383 36064 ft 464 kts 189°
2026-05-05 06:01 44.26508 19.78357 36069 ft 464 kts 189°
2026-05-05 06:02 44.20134 19.77346 36080 ft 465 kts 189°
2026-05-05 06:02 44.13698 19.76345 36086 ft 465 kts 189°
2026-05-05 06:03 44.07277 19.75341 36091 ft 465 kts 189°
2026-05-05 06:03 44.00890 19.74331 36091 ft 465 kts 189°
2026-05-05 06:04 43.94458 19.73313 36099 ft 465 kts 189°
2026-05-05 06:04 43.88024 19.72309 36101 ft 465 kts 189°
2026-05-05 06:05 43.81587 19.71309 36110 ft 465 kts 189°
2026-05-05 06:05 43.75155 19.70307 36112 ft 466 kts 189°
2026-05-05 06:06 43.68715 19.69293 36118 ft 466 kts 189°
2026-05-05 06:06 43.62313 19.68293 36126 ft 466 kts 189°
2026-05-05 06:07 43.55865 19.67297 36127 ft 466 kts 189°
2026-05-05 06:07 43.49411 19.66312 36124 ft 467 kts 189°
2026-05-05 06:08 43.42996 19.65329 36121 ft 467 kts 190°
2026-05-05 06:08 43.36542 19.64343 36131 ft 467 kts 190°
2026-05-05 06:09 43.30077 19.63347 36130 ft 468 kts 190°
2026-05-05 06:09 43.23607 19.62356 36133 ft 468 kts 190°
2026-05-05 06:10 43.17131 19.61369 36137 ft 468 kts 190°
2026-05-05 06:10 43.10697 19.60390 36136 ft 468 kts 190°
2026-05-05 06:11 43.04217 19.59403 36142 ft 469 kts 190°
2026-05-05 06:11 42.97695 19.58950 36139 ft 473 kts 182°
2026-05-05 06:12 42.91113 19.59169 36134 ft 473 kts 182°
2026-05-05 06:12 42.84523 19.59387 36134 ft 474 kts 182°
2026-05-05 06:13 42.77971 19.59605 36146 ft 474 kts 182°
2026-05-05 06:13 42.71369 19.59816 36147 ft 475 kts 182°
2026-05-05 06:14 42.64761 19.60021 36144 ft 475 kts 182°
2026-05-05 06:14 42.58156 19.60235 36148 ft 475 kts 182°
2026-05-05 06:15 42.51591 19.59893 36155 ft 468 kts 194°
2026-05-05 06:15 42.45282 19.58169 35648 ft 463 kts 196°
2026-05-05 06:16 42.42128 19.57299 34719 ft 460 kts 196°
2026-05-05 06:16 42.39010 19.56445 33730 ft 455 kts 195°
2026-05-05 06:16 42.35923 19.55602 32631 ft 451 kts 195°
2026-05-05 06:16 42.32864 19.54769 31581 ft 446 kts 195°
2026-05-05 06:17 42.29836 19.53950 30562 ft 441 kts 195°
2026-05-05 06:17 42.26837 19.53139 29463 ft 438 kts 195°
2026-05-05 06:17 42.23861 19.52332 28336 ft 434 kts 195°
2026-05-05 06:17 42.20951 19.51540 27272 ft 430 kts 195°
2026-05-05 06:18 42.18036 19.50745 26233 ft 426 kts 195°
2026-05-05 06:18 42.15141 19.49958 25231 ft 422 kts 194°
2026-05-05 06:18 42.12273 19.49181 24262 ft 418 kts 194°
2026-05-05 06:18 42.09435 19.48411 23309 ft 413 kts 194°
2026-05-05 06:19 42.06630 19.47652 22275 ft 409 kts 194°
2026-05-05 06:19 42.03856 19.46902 21302 ft 404 kts 193°
2026-05-05 06:19 42.01112 19.46159 20347 ft 400 kts 193°
2026-05-05 06:19 41.98412 19.45622 19426 ft 397 kts 183°
2026-05-05 06:20 41.95677 19.45857 18576 ft 392 kts 170°
2026-05-05 06:20 41.93023 19.46508 17755 ft 383 kts 170°
2026-05-05 06:20 41.90432 19.47135 16944 ft 375 kts 170°
2026-05-05 06:20 41.87882 19.47742 16190 ft 367 kts 170°
2026-05-05 06:21 41.85404 19.48325 15552 ft 358 kts 170°
2026-05-05 06:21 41.82981 19.48891 14905 ft 349 kts 170°
2026-05-05 06:21 41.80612 19.49445 14297 ft 342 kts 170°
2026-05-05 06:21 41.78293 19.49990 13662 ft 335 kts 169°
2026-05-05 06:22 41.76019 19.50528 13016 ft 328 kts 169°
2026-05-05 06:22 41.73842 19.51044 12520 ft 317 kts 169°
2026-05-05 06:22 41.71700 19.51551 12000 ft 308 kts 169°
2026-05-05 06:22 41.69617 19.52042 11519 ft 300 kts 169°
2026-05-05 06:23 41.67590 19.52540 11017 ft 292 kts 165°
2026-05-05 06:23 41.65799 19.53668 10545 ft 282 kts 139°
2026-05-05 06:23 41.64578 19.55636 10071 ft 272 kts 115°
2026-05-05 06:23 41.64088 19.58020 9550 ft 264 kts 91°
2026-05-05 06:24 41.64206 19.60435 9034 ft 258 kts 83°
2026-05-05 06:24 41.64387 19.62797 8495 ft 254 kts 83°
2026-05-05 06:24 41.64563 19.65139 7952 ft 252 kts 86°
2026-05-05 06:24 41.64285 19.67363 7401 ft 244 kts 118°
2026-05-05 06:25 41.63149 19.68909 6868 ft 231 kts 154°
2026-05-05 06:25 41.61627 19.69373 6333 ft 222 kts 176°
2026-05-05 06:25 41.60104 19.69541 5774 ft 217 kts 175°
2026-05-05 06:25 41.58618 19.69736 5218 ft 212 kts 174°
2026-05-05 06:26 41.57165 19.69935 4675 ft 208 kts 174°
2026-05-05 06:26 41.55749 19.70130 4195 ft 201 kts 174°
2026-05-05 06:26 41.54391 19.70317 3704 ft 192 kts 174°
2026-05-05 06:26 41.53077 19.70497 3198 ft 187 kts 174°
2026-05-05 06:27 41.51835 19.70666 2734 ft 178 kts 174°
2026-05-05 06:27 41.49478 19.70979 1941 ft 163 kts 175°
2026-05-05 06:27 41.48382 19.71100 1672 ft 151 kts 174°
2026-05-05 06:28 41.47354 19.71251 1338 ft 147 kts 173°
2026-05-05 06:28 41.46347 19.71401 1009 ft 144 kts 174°
2026-05-05 06:28 41.45368 19.71525 732 ft 139 kts 174°
2026-05-05 06:28 41.44422 19.71663 525 ft 135 kts 174°
2026-05-05 06:29 41.43508 19.71787 309 ft 133 kts 174°
2026-05-05 06:29 41.42590 19.71908 155 ft 132 kts 174°
2026-05-05 06:29 41.41748 19.72021 120 ft 101 kts 174°
2026-05-05 06:29 41.41217 19.72090 124 ft 52 kts 174°
2026-05-05 06:30 41.40959 19.72127 126 ft 33 kts 174°
2026-05-05 06:30 41.40778 19.72148 131 ft 19 kts 175°
2026-05-05 06:30 41.40711 19.72152 132 ft 7 kts 192°
2026-05-05 06:30 41.40685 19.72104 132 ft 7 kts 252°
2026-05-05 06:31 41.40672 19.72040 126 ft 7 kts 255°
2026-05-05 06:31 41.40660 19.71978 130 ft 7 kts 256°
2026-05-05 06:31 41.40646 19.71894 129 ft 9 kts 257°
2026-05-05 06:31 41.40633 19.71817 131 ft 8 kts 257°
2026-05-05 06:32 41.40675 19.71754 129 ft 11 kts 347°
2026-05-05 06:32 41.40748 19.71743 130 ft 10 kts 354°
2026-05-05 06:32 41.40835 19.71732 128 ft 18 kts 355°
2026-05-05 06:32 41.40977 19.71713 128 ft 22 kts 354°
2026-05-05 06:33 41.41135 19.71690 126 ft 24 kts 353°
2026-05-05 06:33 41.41301 19.71668 122 ft 25 kts 355°
2026-05-05 06:33 41.41463 19.71647 126 ft 22 kts 354°
2026-05-05 06:33 41.41620 19.71626 123 ft 23 kts 354°
2026-05-05 06:34 41.41778 19.71604 121 ft 21 kts 354°
2026-05-05 06:34 41.41894 19.71588 123 ft 10 kts 354°
2026-05-05 06:34 41.41954 19.71581 119 ft 8 kts 354°
2026-05-05 06:34 41.41986 19.71568 119 ft 3 kts 315°
2026-05-05 06:35 41.41989 19.71559 120 ft 1 kts 293°
2026-05-05 06:35 41.42004 19.71557 119 ft 4 kts 351°
2026-05-05 06:35 41.42029 19.71542 120 ft 1 kts 294°
2026-05-05 06:35 41.42031 19.71524 121 ft 2 kts 269°
2026-05-05 06:36 41.42030 19.71507 122 ft 2 kts 265°
2026-05-05 06:36 41.42030 19.71506 122 ft 0 kts 265°